Regional Weather Roundup
Issued by NWS

Home | Current Version | Previous Version | Graphics & Text | Print | Product List | Glossary On
Versions: 1 2 3 4 5 6 7 8 9 10 11 12 13 14 15 16 17 18 19 20 21 22 23 24 25 26 27 28 29 30 31 32 33 34 35 36 37 38 39 40 41 42 43 44 45 46 47 48 49 50
000
ASUS43 KMKX 190000
RWRWI

WISCONSIN REGIONAL WEATHER ROUNDUP
NATIONAL WEATHER SERVICE MILWAUKEE/SULLIVAN WI
700 PM CDT FRI AUG 18 2017

NOTE: "FAIR" INDICATES FEW OR NO CLOUDS BELOW 12,000 FEET WITH NO
SIGNIFICANT WEATHER AND/OR OBSTRUCTIONS TO VISIBILITY.

WIZ001-002-006>008-014>016-023>028-190100-
NORTHWEST WISCONSIN

CITY           SKY/WX    TMP DP  RH WIND       PRES   REMARKS
SUPERIOR ARPT    N/A     70  65  83 SW6       29.84R
ASHLAND        MOSUNNY   69  62  78 W6        29.84S
6HR MIN TEMP:  69; 6HR MAX TEMP:  74;

HAYWARD        CLOUDY    68  62  81 VRB3      29.87F
6HR MIN TEMP:  68; 6HR MAX TEMP:  72;

SIREN          MOSUNNY   70  62  73 W3        29.87F
CUMBERLAND     CLOUDY    66  61  82 W5        29.89R
RICE LAKE      CLOUDY    68  64  86 W3        29.89S
CHETEK         CLOUDY    69  64  86 CALM      29.88S
LADYSMITH      CLOUDY    69  59  71 W3        29.90R
EAU CLAIRE     CLOUDY    69  63  81 W6        29.88R
MENOMONIE      CLOUDY    68  62  79 W5        29.89R
NEW RICHMOND   CLOUDY    70  62  77 SW5       29.89S
OSCEOLA        MOSUNNY   73  63  72 W3        29.91S
$$

WIZ003>005-009-010-017-018-190100-
NORTH CENTRAL WISCONSIN

CITY           SKY/WX    TMP DP  RH WIND       PRES   REMARKS
MANITOWISH WTR PTCLDY    65  58  78 W5        29.87R
ARBOR VITAE    CLOUDY    66  58  75 CALM      29.87R
WOODRUFF       CLOUDY    66  58  75 CALM      29.87R
RHINELANDER    CLOUDY    65  58  78 CALM      29.88R
6HR MIN TEMP:  65; 6HR MAX TEMP:  70; 6HR PCP: TRACE;

EAGLE RIVER    CLOUDY    65  54  68 NW5       29.86R
LAND O LAKES   CLOUDY    64  56  76 CALM      29.88S
PHILLIPS       CLOUDY    65  61  86 CALM      29.87S
TOMAHAWK         N/A     65  57  77 CALM      29.88R
MEDFORD        PTCLDY    65  59  81 W6        29.88S
MERRILL        NOT AVBL
$$

WIZ029-030-035-036-043>047-190100-
CENTRAL WISCONSIN

CITY           SKY/WX    TMP DP  RH WIND       PRES   REMARKS
WAUSAU         CLOUDY    67  59  75 W8        29.86R
6HR MIN TEMP:  67; 6HR MAX TEMP:  69;

MOSINEE        MOCLDY    66  61  82 W7        29.89R
MARSHFIELD     LGT RAIN  66  61  84 W6        29.88R
6HR MIN TEMP:  66; 6HR MAX TEMP:  69; 6HR PCP: TRACE;

STEVENS POINT  CLOUDY    66  60  81 W6        29.88R
WAUPACA        CLOUDY    71  60  67 W3        29.87R
WAUTOMA        CLOUDY    69  60  73 W9        29.88R
6HR MIN TEMP:  69; 6HR MAX TEMP:  76;

WISC RAPIDS    LGT RAIN  66  63  90 W6        29.89S
6HR MIN TEMP:  66; 6HR MAX TEMP:  73; 6HR PCP: TRACE;

CAMP DOUGLAS   NOT AVBL
$$

WIZ011>013-019>022-031-037>040-048>050-190100-
NORTHEAST WISCONSIN

CITY           SKY/WX    TMP DP  RH WIND       PRES   REMARKS
ANTIGO         CLOUDY    65  59  81 NW3       29.87R
SHAWANO        CLOUDY    71  60  69 W5        29.84R
OCONTO         CLOUDY    70  61  73 CALM      29.81S
STURGEON BAY   CLOUDY    68  59  73 N13       29.83R
6HR MIN TEMP:  67; 6HR MAX TEMP:  71;

GREEN BAY      CLOUDY    69  63  81 W7        29.83S
6HR MIN TEMP:  68; 6HR MAX TEMP:  73;

MANITOWOC      NOT AVBL
APPLETON       MOCLDY    68  55  64 W10       29.84S
CLINTONVILLE   CLOUDY    68  57  68 W7        29.84S
OSHKOSH        CLOUDY    70  59  68 NW8       29.85S
6HR MIN TEMP:  69; 6HR MAX TEMP:  75;

$$

WIZ032>034-041-042-053>061-190100-
SOUTHWEST WISCONSIN

CITY           SKY/WX    TMP DP  RH WIND       PRES   REMARKS
LA CROSSE      CLOUDY    72  64  76 CALM      29.89R
6HR MIN TEMP:  72; 6HR MAX TEMP:  74; 6HR PCP: TRACE;

SPARTA         CLOUDY    67  63  87 CALM      29.90S
VIROQUA        CLOUDY    66  64  95 W3        29.92S
BOSCOBEL       CLOUDY    71  62  73 VRB3      29.90S
6HR MIN TEMP:  71; 6HR MAX TEMP:  77; 6HR PCP: TRACE;

PRAIRIE DU CHI PTSUNNY   72  58  62 W5        29.90S
PLATTEVILLE    PTCLDY    72  63  74 NW6       29.91S
$$

WIZ056-057-062-063-064-067-068-190100-
SOUTH CENTRAL WISCONSIN

CITY           SKY/WX    TMP DP  RH WIND       PRES   REMARKS
REEDSBURG      CLOUDY    69  62  77 W5        29.89S
BARABOO/DELLS  CLOUDY    69  59  70 W6        29.89S
LONE ROCK      CLOUDY    70  63  78 W8        29.89S
6HR MIN TEMP:  70; 6HR MAX TEMP:  76;

MINERAL POINT  CLOUDY    72  64  78 W5        29.92S
MADISON        CLOUDY    70  60  70 VRB5      29.87S
6HR MIN TEMP:  70; 6HR MAX TEMP:  77;

MIDDLETON      CLOUDY    71  60  68 W6        29.89S
WATERTOWN      CLOUDY    71  62  73 W9        29.86S
MONROE         CLOUDY    70  59  68 NW5       29.90R
JANESVILLE     MOCLDY    73  61  64 NW8       29.88R
$$

WIZ051-052-058>065-066-070>072-190100-
SOUTHEAST WISCONSIN

CITY           SKY/WX    TMP DP  RH WIND       PRES   REMARKS
MILWAUKEE      MOCLDY    77  60  55 W10       29.84S
6HR MIN TEMP:  74; 6HR MAX TEMP:  80;

WAUKESHA       CLEAR     72  57  60 W12       29.86S
MILWAUKEE/TIMM PTCLDY    73  55  53 W10       29.85S
RACINE         CLEAR     75  62  64 W7        29.86S
6HR MIN TEMP:  73; 6HR MAX TEMP:  78;

KENOSHA        PTCLDY    75  61  61 W8        29.85S
6HR MIN TEMP:  74; 6HR MAX TEMP:  79;

FOND DU LAC    CLOUDY    71  58  63 NW8       29.85S
6HR MIN TEMP:  69; 6HR MAX TEMP:  77;

SHEBOYGAN      PTCLDY    72  62  71 NW8G16    29.84S
6HR MIN TEMP:  69; 6HR MAX TEMP:  75;

WEST BEND      MOCLDY    72  59  64 W8        29.85S
JUNEAU         PTCLDY    70  60  71 W3        29.88R
$$

LSZ147-162-190100-
LAKE SUPERIOR

STATION/POSITION TIME  TEMP    WIND        PRES    WAVE
                       AIR SEA DIR/SP/G            HT/PER
                 (UTC) (F)     (DEG/KT/KT) (MB)    (FT/S)
W MID LAKE BUOY  2250   61 60  240/ 10/ 12 1009.2F   1/ 3
DEVILS ISLAND    2300   66     220/ 10/ 12 1009.8R
SAXON HARBOR     2330   67     160/  2/  3 1010.2S
$$

LMZ867-665-643>646-190100-
LAKE MICHIGAN

STATION/POSITION TIME  TEMP    WIND        PRES    WAVE
                       AIR SEA DIR/SP/G            HT/PER
                 (UTC) (F)     (DEG/KT/KT) (MB)    (FT/S)
S GREEN BAY BUOY 2330   71 71  300/  6/  8 1009.6R
N MID LAKE BUOY  2250   66 67  300/ 16/ 19 1009.0R   2/ 4
NORTHPORT PIER   2340   68     300/ 11/ 21 1009.5S
KEWAUNEE LAKESHO 2330   71     290/  5/  8 1009.0S
SHEBOYGAN LAKESH 2300   73     310/  9/ 12 1009.7S
PORT WASHINGTON  2330   77     290/  5/  8 1011.2R
ATWATER BUOY     2209   75 71  270/  8/ 12 1010.5
MILWAUKEE LAKESH 2330   76     290/  9/ 11   N/A
S MID LAKE BUOY  2250   71 71   60/  2/  2 1010.7R   2/ 4
KENOSHA   LAKESH 2300   78     270/  9/ 13 1010.2
$$

TC  - TEMPERATURE IN CELSIUS
VSB - VISIBILITY IN STATUTE MILES
WCI - WIND CHILL INDEX
HX  - HEAT INDEX





USA.gov is the U.S. government's official web portal to all federal, state and local government web resources and services.